Wind_Speed
20 19 19 19 19 19 20 21 23 26 27 28 29 27 27 28 28 25 22 21 20 18 19 20 21 20 20 21 17 15 17 17 17 18 21 21 20 20 20 20 20 20 21 21 21 20 19 17 15 14 13 14 15 16 15 16 17 18 19 20 20 19
20 19 18 17 18 18 19 19 21 24 24 27 30 29 26 27 27 26 23 22 22 21 19 20 22 21 21 22 19 16 17 18 19 20 22 23 21 21 20 20 20 20 21 21 21 21 20 18 17 16 15 15 15 17 17 16 17 18 18 19 19 19
21 19 18 17 18 18 18 19 20 20 19 21 26 28 25 24 26 26 26 24 24 23 21 21 23 23 22 24 21 16 17 18 20 21 22 24 23 22 21 21 21 21 21 21 22 22 21 20 19 18 17 16 17 17 17 17 17 17 18 18 18 19
22 21 19 18 19 19 19 19 18 18 17 15 18 23 24 23 24 26 27 27 27 27 24 22 23 25 24 24 23 19 17 18 20 21 22 24 25 24 23 22 21 22 22 22 22 23 23 21 20 19 19 18 18 18 18 17 17 17 17 17 18 18
22 21 20 20 21 20 19 19 18 17 17 15 14 17 21 24 25 27 28 29 29 29 28 25 24 25 25 25 25 22 19 18 19 21 22 24 26 26 25 24 23 22 23 23 23 23 23 23 22 20 20 20 20 19 18 17 17 17 16 17 17 17
23 22 21 21 22 22 20 20 19 18 17 16 15 16 19 23 26 29 28 28 30 30 30 28 26 25 26 26 26 24 21 20 20 21 22 23 26 27 26 25 24 23 24 24 24 24 24 24 24 22 22 21 21 20 19 18 17 17 17 17 17 17
23 22 21 21 22 22 21 21 21 19 18 17 18 19 19 20 24 29 30 28 29 31 31 30 28 27 27 28 27 25 24 22 21 22 22 23 24 27 28 27 26 25 24 25 25 24 24 24 25 24 23 22 21 20 19 18 18 18 17 17 16 16
24 23 22 22 22 23 23 22 22 21 20 19 19 19 19 19 21 26 30 29 28 30 31 32 31 29 29 29 28 27 25 24 22 22 22 22 23 26 29 30 28 27 26 26 26 25 25 25 25 25 25 24 23 22 20 19 19 18 18 17 16 16
26 25 24 23 23 24 24 23 23 23 23 22 20 19 19 19 20 22 28 30 29 30 31 32 33 33 32 31 31 29 27 26 24 23 23 23 24 25 28 31 31 29 28 27 27 26 26 26 26 26 26 25 24 23 22 21 20 20 19 18 17 16
29 27 26 25 24 24 25 25 25 25 25 24 22 22 21 20 20 21 24 28 30 31 32 33 34 34 35 34 33 32 30 29 27 26 24 24 24 25 27 30 32 31 29 28 28 27 27 27 27 27 27 26 25 24 23 23 23 22 21 20 19 18
31 30 28 27 26 26 26 26 26 26 27 25 25 24 23 21 21 21 22 24 27 30 33 35 35 35 36 37 36 34 33 31 30 29 28 26 25 26 26 28 31 32 31 29 29 28 28 29 29 29 29 28 27 26 25 25 25 25 24 23 21 20
33 32 31 30 28 27 27 27 28 28 28 27 27 26 25 24 23 23 23 23 24 26 29 32 36 36 36 38 39 37 35 34 33 32 31 30 28 27 27 27 29 32 32 31 30 29 29 30 30 30 30 29 29 28 27 27 27 27 26 25 24 23
33 34 33 32 31 30 29 29 29 30 30 29 29 29 28 28 27 26 25 25 25 26 27 28 33 37 37 38 40 41 39 37 36 34 33 33 31 29 29 28 27 30 33 32 31 31 31 30 31 32 31 31 30 30 29 29 28 28 28 27 26 25
33 34 34 33 32 32 31 30 31 32 32 32 32 31 31 31 30 30 29 28 28 29 29 27 28 33 37 39 41 43 43 42 40 38 36 35 34 32 31 30 28 28 31 33 33 32 32 32 32 32 32 32 32 31 31 30 30 30 29 29 28 26
32 33 34 34 34 33 33 32 32 33 34 34 34 34 33 32 32 32 32 32 31 30 30 28 26 28 33 37 41 43 44 45 45 42 39 37 36 35 34 33 30 29 29 31 34 34 34 34 33 33 33 33 33 33 33 32 32 31 31 30 29 28
30 31 32 33 33 33 34 33 33 34 35 35 36 36 35 34 34 34 34 34 32 31 31 29 28 28 29 32 37 42 45 47 48 46 42 39 38 38 37 36 34 31 30 30 33 35 36 36 35 34 34 34 33 34 34 34 34 33 33 32 30 29
29 30 30 31 31 32 32 33 34 35 35 36 37 37 37 36 36 35 35 35 34 33 33 32 31 32 31 31 33 38 43 47 50 48 46 43 40 40 39 38 37 35 32 31 32 34 37 37 37 36 35 35 34 34 35 35 36 35 34 33 32 31
29 29 29 29 30 30 31 32 33 34 35 36 37 38 39 38 37 37 37 37 36 36 37 36 33 33 34 33 33 34 38 44 50 50 48 46 44 41 41 41 40 39 37 34 33 33 36 37 38 38 37 36 35 35 35 36 36 36 35 34 33 33
28 28 29 29 29 30 31 31 32 33 34 35 37 38 40 39 38 38 38 38 38 38 39 38 36 35 36 35 35 35 35 38 45 51 50 48 46 44 42 42 42 42 41 39 36 34 34 36 38 39 39 38 37 36 36 35 35 36 36 36 35 35
28 27 28 28 29 30 30 31 32 33 34 35 36 38 39 40 40 39 39 38 39 39 40 40 39 39 38 36 36 37 35 34 38 47 51 48 47 47 44 43 44 45 44 42 40 37 36 36 37 39 40 40 39 38 36 36 35 35 36 36 36 36
30 29 29 29 29 29 30 31 32 33 34 35 36 37 38 40 41 41 40 40 39 40 41 41 41 41 40 39 39 39 37 34 34 40 48 47 46 48 47 46 45 46 46 45 43 41 39 37 37 37 39 40 40 40 38 37 36 35 36 36 36 36
31 32 31 31 30 30 30 30 32 33 34 35 36 37 38 39 41 41 41 41 41 41 42 43 43 43 43 42 41 40 38 36 34 36 43 47 45 46 48 49 49 47 46 47 46 45 43 40 38 37 39 40 41 41 40 39 38 37 37 36 36 36
32 33 33 33 33 33 32 31 32 33 34 35 36 37 39 40 41 41 42 42 43 43 43 44 44 44 44 44 43 42 40 38 37 35 40 47 47 47 50 52 52 50 48 49 48 48 46 43 41 40 39 39 39 41 41 41 40 39 38 38 37 36
33 33 33 34 35 35 35 34 34 34 35 36 37 38 39 40 41 42 42 42 43 44 45 45 46 46 46 46 44 44 43 41 41 40 43 49 46 45 52 53 53 52 51 51 50 49 49 47 46 43 41 39 39 40 41 41 41 42 41 39 38 38
34 34 34 34 35 36 37 37 37 37 37 38 39 40 40 41 41 42 43 43 43 44 45 46 48 48 48 48 46 46 45 44 44 43 46 49 44 39 44 48 52 56 55 53 52 51 51 51 49 47 44 41 40 39 40 42 43 44 43 41 40 39
35 35 35 35 35 36 37 38 39 39 39 39 40 41 42 42 42 43 43 44 44 44 45 46 48 49 50 50 49 48 48 47 47 46 46 48 46 41 41 43 46 52 55 56 55 54 54 52 51 50 47 44 42 41 41 42 44 44 44 43 42 41
35 36 36 36 35 35 37 38 40 40 41 41 41 42 43 43 44 44 44 45 45 45 46 46 47 49 50 51 52 51 50 50 49 49 48 48 47 44 44 45 42 41 47 55 58 56 54 54 54 52 50 48 46 44 44 43 43 44 44 44 44 43
36 37 36 36 36 36 37 38 39 40 41 42 42 43 43 43 45 45 46 46 46 46 47 47 47 48 50 51 53 53 53 52 52 51 51 50 49 46 45 45 42 39 41 49 56 58 55 55 56 54 52 51 50 48 47 46 44 44 44 43 44 44
38 38 38 38 37 38 38 39 39 40 41 41 42 43 43 44 45 45 46 47 48 48 47 47 48 48 49 50 52 54 55 55 54 54 54 53 52 50 47 46 43 42 42 45 50 56 57 54 54 56 57 55 53 52 50 49 46 44 43 43 44 45
40 40 40 40 40 40 40 40 40 40 41 41 42 42 43 44 44 45 45 46 47 48 48 48 48 49 49 49 50 52 55 57 57 56 57 56 54 53 51 51 49 47 47 48 48 52 58 57 52 53 58 59 56 55 53 51 48 46 44 43 43 44
41 41 41 41 41 41 42 41 42 42 42 42 43 43 43 44 44 44 44 45 46 47 48 49 49 49 50 50 50 51 53 56 58 59 58 58 58 56 54 53 52 51 51 51 50 50 54 58 55 50 54 58 58 56 55 53 52 50 48 45 44 45
42 42 41 41 41 42 42 42 42 43 43 43 44 44 44 44 45 44 44 44 45 45 46 48 49 49 50 51 51 50 51 53 56 59 60 60 60 59 58 57 54 54 55 54 54 52 52 56 59 55 52 53 56 57 56 55 55 54 51 49 47 46
42 42 41 40 40 41 42 42 42 43 43 44 44 45 45 46 46 45 45 45 45 45 45 47 48 49 50 52 52 51 51 52 53 56 60 62 62 62 61 61 59 58 58 58 56 56 55 54 56 58 55 52 54 56 56 57 58 56 54 52 50 48
42 41 40 39 40 40 40 41 41 42 43 44 45 45 46 46 47 47 46 46 46 46 46 47 48 49 50 52 53 53 52 52 52 54 57 60 63 64 64 64 63 62 61 61 59 58 58 57 54 54 56 55 56 56 56 58 60 60 58 55 52 51
40 40 39 39 39 39 39 40 40 40 41 43 44 45 45 46 47 48 48 48 48 48 48 48 48 49 50 51 53 54 54 53 53 53 55 57 60 64 66 67 66 66 64 63 62 60 59 60 57 53 53 55 57 57 57 59 60 61 60 58 55 53
39 39 39 39 39 39 39 39 39 39 39 41 42 43 44 45 46 47 48 48 49 49 49 48 48 49 50 51 52 53 54 54 55 55 55 55 57 60 64 68 69 69 68 66 65 63 61 60 60 57 54 53 54 54 56 60 63 63 62 60 58 57
39 39 39 38 39 39 39 40 39 39 39 39 40 42 43 44 45 47 48 48 48 49 49 48 48 48 49 51 52 53 54 54 55 56 55 55 56 57 60 64 69 71 71 69 67 65 64 62 62 60 56 53 52 52 53 57 62 66 66 63 60 58
Wind_Direction
251 252 253 250 250 253 255 256 258 259 255 245 233 227 227 226 228 230 228 224 218 216 218 218 219 219 212 199 198 212 208 198 191 186 181 177 174 170 172 180 182 181 181 183 181 180 184 186 185 186 189 186 177 173 175 174 169 167 166 165 165 168
252 252 253 252 252 254 256 257 261 266 266 251 234 223 222 225 227 229 228 225 221 217 217 217 217 217 214 202 198 211 214 204 194 188 184 179 175 173 172 179 186 187 185 185 183 182 186 188 189 189 191 194 190 182 181 182 179 176 174 172 171 172
255 253 252 253 255 256 257 257 260 269 272 255 233 221 220 222 226 229 229 228 225 220 217 217 218 218 215 205 198 207 219 213 201 191 185 181 178 175 173 178 187 192 190 189 186 184 186 189 192 194 192 195 197 191 187 188 187 184 183 181 179 179
255 254 252 253 256 257 258 259 261 267 270 259 235 223 221 222 223 225 225 227 226 222 219 218 221 221 215 208 202 203 216 220 211 199 189 184 181 179 176 177 185 195 196 192 190 188 186 189 193 197 196 195 198 198 194 193 194 192 191 190 188 187
256 255 253 253 256 257 258 262 264 264 265 261 244 229 226 225 223 221 220 221 223 222 220 220 222 222 217 213 209 204 210 218 217 207 195 189 185 182 181 180 183 193 199 197 194 192 189 189 193 197 200 199 198 200 198 196 198 199 199 197 196 195
258 257 254 253 255 258 257 259 262 262 261 257 248 239 234 231 227 223 220 219 220 220 221 222 224 223 220 219 215 209 210 214 217 214 203 195 189 185 184 184 185 192 199 200 198 196 193 192 194 197 200 203 201 200 200 199 199 201 203 204 203 202
258 258 256 254 254 257 256 255 257 257 256 253 249 245 241 236 230 227 226 222 221 220 221 222 223 225 224 222 220 216 214 214 215 217 210 202 194 189 187 188 189 192 198 201 201 200 198 196 197 198 199 203 205 203 200 199 199 200 203 207 209 209
258 258 257 255 253 255 255 253 252 252 250 247 248 248 242 235 230 228 227 225 222 220 221 221 221 224 225 225 223 220 218 217 217 219 217 210 202 195 192 191 191 193 197 200 202 203 202 201 201 202 201 202 204 204 201 200 200 200 201 204 208 212
257 256 256 254 253 253 254 252 250 249 246 243 243 244 242 238 232 227 225 224 223 222 223 222 221 221 224 226 224 222 221 219 220 222 223 219 211 203 197 195 194 195 197 199 201 203 205 205 204 206 206 204 204 204 201 201 201 201 201 202 206 210
258 256 255 253 252 252 253 252 249 248 247 243 240 240 240 239 236 232 228 226 226 227 228 228 225 223 223 225 225 224 223 221 220 222 225 224 220 213 205 200 198 197 197 199 200 202 205 207 208 209 210 209 207 205 202 202 203 203 202 202 204 208
256 256 255 253 251 250 251 252 250 248 247 244 242 241 239 237 236 236 235 231 230 231 233 233 231 227 224 225 226 226 225 223 222 222 224 225 224 220 214 206 202 200 199 200 201 202 205 208 210 211 212 212 211 209 205 204 206 206 206 205 206 208
253 253 253 253 251 249 248 250 250 248 247 245 243 242 239 236 234 236 237 235 235 236 237 236 233 230 226 225 227 229 229 229 226 224 224 225 225 222 221 216 209 204 202 201 202 204 206 208 210 212 214 215 215 213 210 208 209 210 210 209 209 210
251 252 252 252 251 250 247 247 249 248 246 245 243 241 239 238 237 237 238 237 237 239 241 241 235 230 227 224 226 229 231 233 232 229 226 225 225 223 222 222 218 211 207 205 204 205 208 209 211 212 214 216 217 216 215 212 212 213 214 214 212 212
251 252 252 252 252 252 250 247 247 248 247 245 243 241 240 239 239 240 240 239 238 239 241 242 239 232 228 225 225 227 230 233 235 233 230 228 227 225 223 223 224 220 215 211 208 207 208 210 212 213 214 216 218 219 218 217 216 216 218 218 216 215
252 253 253 254 253 253 252 249 247 247 247 246 244 243 241 239 240 241 240 240 239 238 237 237 237 235 232 229 227 227 228 231 233 234 232 230 228 227 225 224 225 225 221 218 215 212 210 211 213 214 214 216 218 220 221 220 219 219 221 221 220 219
253 253 254 255 255 253 252 250 248 246 246 247 246 245 243 241 240 241 241 241 240 237 236 236 236 236 234 234 232 229 228 229 230 232 232 231 229 228 227 226 225 226 225 223 221 218 215 213 214 215 215 216 218 220 221 222 222 222 222 224 224 223
255 255 255 256 257 256 253 250 248 247 246 246 246 246 244 242 240 241 241 241 240 237 237 237 237 235 234 235 235 232 231 230 228 229 231 231 230 229 229 228 226 226 226 225 224 223 221 219 217 216 217 217 217 219 221 222 223 224 224 225 227 227
255 257 257 257 258 258 257 254 250 248 247 246 247 247 246 243 241 240 241 242 241 239 239 239 238 237 235 234 234 235 235 233 230 228 229 230 230 229 229 229 228 227 226 226 226 226 226 224 221 219 218 218 219 220 221 222 224 225 226 227 229 230
254 256 258 259 258 259 259 258 255 252 250 248 248 248 248 246 243 240 240 241 241 240 240 240 239 238 237 235 235 237 239 239 233 229 228 227 228 230 230 229 231 229 227 226 226 226 227 228 226 224 221 221 221 222 222 223 224 225 226 227 229 231
262 260 260 260 260 260 258 258 257 255 253 252 251 251 251 249 247 243 241 240 240 239 240 240 239 238 238 236 235 235 237 241 237 230 228 227 227 228 230 230 231 232 230 228 227 227 227 228 229 228 226 224 224 224 225 225 225 226 227 228 229 231
270 269 267 265 263 262 261 259 257 256 254 254 253 252 252 252 250 247 245 242 240 239 240 239 239 239 240 239 238 237 235 238 240 233 229 229 228 227 229 231 231 232 232 231 229 228 227 227 229 230 230 228 227 226 226 226 226 227 228 230 230 230
272 272 272 270 267 265 263 262 260 258 255 254 254 253 253 253 252 250 248 246 242 239 239 239 239 238 239 240 240 239 237 236 238 238 233 230 229 228 228 231 232 231 232 231 230 229 228 228 229 230 232 231 229 228 227 227 227 228 229 230 231 231
271 272 273 273 272 269 266 264 263 261 259 256 254 253 254 254 254 253 251 249 246 242 239 239 239 238 237 238 239 239 239 237 235 238 236 229 228 229 229 230 231 231 232 231 231 230 229 229 230 230 231 232 232 231 230 229 228 229 229 229 230 232
271 271 272 273 273 273 270 267 264 262 261 260 257 255 253 254 254 255 253 250 248 246 242 240 239 239 237 236 238 238 238 238 235 235 235 232 232 230 228 230 230 230 232 231 231 230 229 229 230 231 231 232 233 233 232 232 232 231 231 230 230 231
272 271 271 271 271 272 271 270 267 264 261 260 259 257 255 254 254 254 254 253 251 248 245 243 241 240 239 236 236 236 237 238 236 235 235 237 240 234 227 229 229 228 230 231 230 230 230 229 229 230 231 231 233 234 234 233 232 232 231 231 230 231
271 271 270 270 269 269 270 270 269 267 264 261 259 258 257 255 254 253 253 253 252 251 248 246 243 242 241 238 236 235 236 237 236 237 237 239 243 240 234 232 227 226 227 229 230 230 230 231 230 230 231 232 233 233 234 234 233 233 232 232 231 231
270 270 270 270 270 269 269 269 269 268 266 264 261 259 258 257 256 254 253 252 252 252 251 248 246 244 242 240 238 235 234 235 235 237 238 239 241 242 242 238 227 222 225 228 230 230 230 231 232 231 230 232 233 233 234 236 236 234 234 234 234 233
274 273 273 272 272 271 270 269 268 267 266 265 264 262 260 258 257 256 255 254 252 251 251 250 248 246 244 242 240 237 234 234 234 235 237 238 239 239 241 238 226 218 223 229 230 230 231 232 233 232 231 231 232 234 235 236 236 236 235 235 236 236
279 278 278 277 275 273 272 270 268 267 265 264 263 263 262 260 258 257 256 255 254 253 251 250 249 248 247 245 242 240 236 234 233 234 236 237 237 236 235 234 228 225 230 234 232 229 230 232 233 232 232 231 231 232 234 235 237 238 238 238 238 237
280 280 280 279 278 276 274 272 269 267 265 264 262 261 261 261 260 258 257 256 256 255 254 252 250 249 248 246 245 243 240 236 234 233 235 236 236 236 234 232 231 231 235 238 236 232 229 230 233 233 231 231 231 231 234 236 237 238 239 239 240 239
278 278 278 278 277 276 274 273 271 269 267 265 264 262 260 260 259 258 258 257 257 256 256 254 252 251 249 248 246 245 243 240 236 234 234 235 236 236 235 234 232 231 232 234 236 237 233 230 232 234 230 230 231 231 233 235 236 237 238 239 240 241
276 275 275 275 275 274 273 272 271 269 268 266 265 264 263 261 260 258 257 256 256 256 256 256 255 253 251 250 248 246 244 243 240 237 235 235 236 236 236 235 234 232 231 231 233 236 237 231 230 232 231 228 229 231 233 235 236 237 238 239 240 242
274 274 273 273 272 272 271 270 269 267 266 265 264 263 262 262 261 260 258 256 255 254 254 255 255 254 253 252 250 249 246 244 243 241 238 235 235 236 237 236 234 233 233 232 231 233 236 233 229 230 231 230 229 230 232 235 236 237 237 238 240 242
274 273 273 272 271 270 269 268 266 265 264 263 262 261 261 260 260 260 259 258 256 254 253 253 253 254 254 253 252 251 249 247 244 242 241 239 236 235 236 237 236 234 234 233 233 232 234 235 231 228 228 230 231 231 232 234 237 238 237 238 240 242
274 274 274 273 272 271 270 268 266 264 263 261 261 260 260 258 258 258 258 257 257 256 255 253 252 252 252 252 252 251 250 250 247 245 242 241 239 237 236 237 237 236 235 234 234 233 234 237 236 232 230 230 231 231 232 235 236 238 239 238 239 241
274 274 274 274 273 273 272 271 269 266 264 262 260 259 259 257 256 255 255 256 256 256 256 254 252 251 251 251 251 251 250 250 249 248 245 243 241 239 237 236 236 237 236 235 235 233 233 236 237 237 237 236 234 232 232 235 237 238 239 239 239 241
274 275 275 275 275 274 274 273 272 269 267 264 263 261 259 258 256 254 254 255 255 256 256 255 254 252 251 251 250 250 250 250 250 249 247 246 244 241 239 237 237 237 237 236 236 235 233 234 236 237 239 239 238 234 233 235 238 238 238 238 239 240
Height
5833 5834 5834 5835 5835 5836 5836 5836 5835 5835 5837 5838 5838 5840 5842 5844 5847 5850 5852 5852 5853 5855 5856 5857 5859 5861 5863 5865 5866 5867 5868 5868 5869 5869 5870 5872 5873 5875 5876 5878 5879 5880 5881 5883 5885 5886 5888 5889 5891 5891 5892 5893 5893 5893 5894 5895 5896 5896 5896 5897 5897 5898
5831 5832 5833 5833 5833 5834 5834 5834 5833 5833 5834 5834 5835 5837 5840 5842 5845 5848 5850 5851 5852 5853 5854 5856 5857 5859 5861 5863 5865 5866 5867 5867 5867 5868 5869 5870 5872 5873 5875 5876 5878 5879 5880 5882 5883 5885 5887 5888 5890 5890 5891 5892 5892 5892 5893 5894 5895 5896 5896 5897 5897 5898
5828 5830 5831 5831 5831 5831 5831 5832 5832 5832 5832 5832 5832 5835 5838 5840 5843 5846 5848 5849 5850 5851 5853 5854 5856 5857 5859 5861 5863 5865 5866 5867 5866 5866 5867 5869 5870 5872 5873 5874 5876 5878 5879 5881 5882 5883 5885 5887 5888 5889 5890 5890 5891 5892 5892 5893 5894 5895 5896 5897 5897 5898
5826 5827 5829 5829 5828 5829 5829 5829 5830 5831 5831 5831 5832 5835 5837 5838 5840 5842 5844 5846 5847 5849 5850 5852 5853 5855 5857 5860 5862 5863 5865 5866 5866 5865 5866 5867 5868 5870 5871 5872 5874 5876 5878 5879 5881 5882 5883 5885 5887 5888 5888 5889 5890 5890 5891 5892 5893 5895 5895 5896 5897 5898
5823 5824 5826 5827 5826 5827 5827 5827 5828 5829 5830 5831 5832 5834 5835 5836 5837 5839 5841 5843 5844 5846 5848 5849 5851 5853 5856 5858 5859 5861 5863 5864 5864 5864 5865 5866 5867 5868 5869 5870 5872 5874 5876 5878 5879 5880 5882 5883 5885 5886 5887 5887 5888 5889 5890 5891 5892 5893 5895 5895 5896 5897
5821 5822 5823 5824 5824 5824 5825 5825 5826 5827 5828 5829 5830 5831 5832 5834 5835 5838 5839 5841 5842 5844 5845 5847 5849 5851 5854 5855 5857 5859 5861 5862 5863 5863 5864 5865 5866 5866 5867 5869 5870 5872 5874 5876 5877 5878 5880 5882 5883 5884 5885 5886 5887 5888 5889 5890 5891 5892 5893 5895 5896 5896
5818 5819 5820 5822 5822 5822 5823 5823 5824 5825 5826 5827 5828 5829 5831 5832 5834 5836 5838 5839 5840 5842 5843 5845 5847 5849 5851 5853 5855 5857 5858 5860 5861 5862 5863 5864 5864 5865 5865 5867 5868 5870 5872 5874 5876 5877 5878 5880 5881 5882 5884 5885 5886 5887 5888 5889 5889 5890 5892 5893 5895 5896
5816 5817 5818 5819 5819 5819 5820 5821 5822 5823 5824 5825 5826 5827 5829 5830 5832 5834 5835 5837 5838 5839 5840 5842 5845 5847 5849 5851 5853 5855 5856 5857 5859 5860 5862 5862 5863 5863 5864 5865 5866 5868 5870 5872 5873 5875 5876 5878 5880 5881 5882 5883 5884 5886 5887 5887 5888 5889 5890 5891 5893 5894
5813 5814 5815 5816 5816 5817 5817 5818 5819 5820 5821 5823 5824 5826 5827 5828 5829 5830 5832 5833 5835 5836 5837 5839 5841 5844 5846 5848 5851 5853 5854 5855 5857 5858 5860 5861 5862 5862 5863 5863 5864 5866 5867 5869 5871 5873 5874 5876 5878 5879 5880 5882 5883 5884 5885 5886 5886 5887 5888 5890 5891 5893
5811 5811 5812 5813 5814 5814 5815 5815 5816 5817 5817 5819 5821 5822 5824 5825 5826 5827 5828 5829 5831 5832 5834 5836 5838 5840 5842 5845 5847 5850 5851 5853 5854 5856 5857 5859 5860 5861 5861 5862 5862 5863 5865 5866 5868 5870 5872 5874 5876 5877 5878 5880 5881 5882 5883 5884 5885 5886 5887 5888 5889 5891
5808 5808 5809 5810 5812 5812 5812 5812 5813 5814 5814 5816 5817 5818 5820 5821 5823 5824 5825 5826 5828 5829 5830 5832 5835 5837 5839 5841 5844 5846 5848 5850 5852 5853 5855 5856 5857 5858 5860 5860 5861 5861 5863 5864 5866 5867 5869 5871 5873 5875 5876 5878 5879 5880 5882 5882 5883 5884 5885 5886 5887 5889
5804 5805 5806 5807 5808 5809 5810 5810 5810 5810 5811 5813 5814 5815 5817 5818 5820 5821 5822 5824 5825 5826 5827 5828 5831 5833 5836 5838 5840 5843 5845 5847 5849 5850 5852 5853 5855 5856 5857 5859 5859 5860 5860 5862 5864 5865 5866 5868 5870 5872 5874 5875 5877 5878 5879 5880 5881 5882 5883 5884 5885 5887
5801 5801 5802 5803 5804 5805 5807 5807 5807 5807 5808 5809 5811 5812 5814 5815 5817 5818 5819 5820 5822 5823 5824 5825 5827 5829 5832 5834 5836 5839 5841 5843 5845 5847 5849 5851 5852 5853 5854 5856 5858 5858 5859 5860 5861 5863 5864 5866 5867 5869 5871 5873 5874 5876 5877 5878 5879 5880 5881 5882 5883 5884
5798 5798 5799 5800 5801 5802 5803 5804 5805 5805 5805 5806 5808 5809 5811 5813 5814 5815 5816 5817 5818 5820 5821 5822 5823 5825 5828 5830 5832 5835 5837 5839 5841 5844 5846 5848 5849 5851 5852 5853 5855 5857 5858 5858 5859 5860 5862 5863 5864 5866 5868 5870 5871 5873 5875 5876 5877 5878 5879 5880 5881 5882
5795 5795 5796 5796 5797 5798 5799 5801 5801 5802 5802 5803 5804 5806 5807 5809 5811 5812 5813 5813 5815 5816 5817 5818 5820 5822 5824 5826 5828 5831 5833 5835 5837 5840 5843 5845 5847 5848 5849 5850 5852 5854 5856 5857 5857 5858 5859 5860 5862 5863 5865 5866 5868 5870 5872 5873 5875 5875 5876 5877 5879 5880
5791 5792 5792 5793 5794 5794 5795 5796 5798 5798 5799 5800 5801 5802 5804 5806 5807 5808 5809 5810 5811 5812 5813 5815 5816 5818 5820 5822 5824 5826 5829 5830 5832 5835 5838 5841 5843 5844 5846 5847 5849 5850 5852 5854 5855 5856 5856 5857 5859 5860 5862 5863 5865 5866 5868 5870 5872 5873 5874 5875 5876 5878
5788 5789 5789 5789 5790 5791 5791 5792 5793 5794 5795 5796 5796 5797 5799 5802 5803 5804 5805 5806 5808 5809 5809 5811 5812 5814 5816 5818 5820 5822 5824 5826 5828 5831 5834 5836 5839 5841 5842 5844 5846 5847 5849 5851 5852 5853 5854 5855 5856 5857 5859 5860 5861 5863 5864 5866 5868 5870 5871 5873 5874 5875
5785 5785 5786 5786 5787 5787 5787 5788 5789 5790 5791 5792 5792 5793 5794 5796 5799 5801 5802 5802 5804 5805 5806 5807 5809 5811 5812 5814 5816 5817 5819 5821 5823 5826 5829 5832 5834 5837 5839 5841 5842 5844 5845 5847 5849 5850 5851 5852 5853 5854 5856 5857 5858 5859 5861 5863 5865 5867 5869 5870 5872 5873
5781 5782 5782 5782 5783 5783 5783 5784 5785 5786 5787 5788 5788 5789 5789 5791 5794 5796 5798 5799 5800 5801 5802 5803 5805 5807 5808 5810 5812 5813 5815 5816 5818 5821 5824 5827 5829 5832 5835 5837 5838 5840 5841 5843 5845 5847 5848 5850 5851 5852 5853 5854 5855 5856 5858 5860 5862 5863 5865 5867 5869 5870
5777 5778 5778 5779 5779 5779 5780 5780 5780 5781 5782 5783 5784 5785 5785 5786 5788 5790 5793 5794 5796 5797 5798 5799 5801 5802 5804 5806 5807 5809 5811 5812 5813 5816 5818 5822 5825 5828 5830 5833 5834 5835 5837 5839 5841 5843 5845 5847 5848 5849 5850 5852 5853 5854 5855 5857 5858 5860 5862 5864 5865 5867
5771 5772 5773 5774 5775 5775 5776 5776 5776 5777 5777 5778 5779 5780 5781 5781 5783 5785 5787 5789 5791 5793 5794 5795 5797 5799 5800 5802 5803 5804 5806 5808 5809 5811 5814 5817 5821 5823 5825 5827 5828 5830 5833 5836 5838 5839 5841 5843 5845 5846 5848 5849 5850 5851 5852 5854 5855 5857 5858 5860 5862 5864
5766 5766 5767 5768 5769 5770 5771 5772 5772 5772 5773 5774 5775 5776 5776 5777 5778 5779 5781 5783 5785 5788 5789 5790 5792 5794 5796 5797 5799 5800 5802 5803 5805 5807 5810 5812 5815 5817 5820 5821 5823 5826 5828 5831 5833 5834 5837 5839 5841 5843 5844 5845 5847 5848 5849 5851 5852 5853 5855 5856 5858 5860
5762 5762 5762 5763 5763 5764 5766 5767 5767 5768 5768 5769 5770 5771 5772 5772 5773 5774 5776 5778 5780 5782 5784 5785 5787 5789 5791 5793 5794 5796 5798 5799 5800 5802 5804 5806 5808 5811 5813 5815 5818 5821 5823 5825 5827 5830 5833 5835 5837 5838 5840 5842 5844 5845 5846 5848 5849 5850 5851 5852 5854 5856
5758 5758 5759 5759 5759 5759 5759 5761 5762 5762 5763 5763 5764 5766 5767 5768 5769 5770 5771 5773 5774 5776 5778 5780 5781 5783 5785 5788 5790 5791 5792 5794 5795 5797 5797 5799 5802 5805 5807 5810 5813 5816 5818 5820 5822 5825 5828 5830 5831 5833 5836 5838 5840 5841 5843 5845 5845 5846 5847 5848 5850 5852
5753 5754 5754 5755 5755 5754 5754 5755 5756 5757 5758 5758 5758 5760 5761 5762 5764 5765 5766 5767 5769 5770 5772 5774 5776 5777 5779 5782 5784 5786 5787 5788 5790 5791 5792 5794 5796 5798 5801 5804 5807 5810 5813 5815 5817 5819 5821 5824 5827 5829 5831 5834 5836 5838 5839 5840 5840 5841 5843 5845 5847 5848
5749 5749 5750 5751 5751 5751 5750 5750 5750 5751 5752 5753 5753 5754 5755 5756 5758 5759 5761 5761 5763 5764 5766 5768 5770 5771 5773 5775 5778 5780 5782 5783 5784 5786 5787 5788 5790 5793 5794 5797 5800 5803 5807 5810 5811 5812 5815 5819 5822 5824 5827 5830 5832 5834 5835 5835 5836 5838 5840 5842 5843 5844
5744 5745 5745 5746 5746 5746 5746 5745 5745 5746 5746 5747 5748 5748 5749 5750 5751 5753 5754 5756 5757 5758 5760 5761 5763 5765 5767 5769 5771 5774 5776 5777 5779 5780 5782 5783 5785 5787 5789 5791 5794 5797 5801 5804 5805 5808 5811 5814 5816 5819 5823 5826 5827 5829 5830 5831 5833 5835 5837 5838 5840 5841
5739 5739 5740 5741 5741 5741 5741 5741 5741 5741 5741 5742 5742 5742 5743 5745 5745 5746 5748 5749 5751 5752 5753 5755 5757 5758 5760 5763 5765 5767 5769 5771 5773 5774 5776 5778 5780 5782 5784 5786 5788 5791 5794 5797 5800 5804 5807 5809 5811 5815 5818 5819 5821 5824 5825 5826 5829 5831 5833 5835 5837 5838
5733 5733 5734 5735 5736 5736 5736 5736 5736 5736 5737 5737 5737 5737 5737 5738 5740 5740 5741 5742 5744 5745 5747 5749 5750 5752 5753 5756 5758 5760 5762 5765 5767 5769 5770 5773 5775 5778 5780 5781 5784 5786 5789 5792 5795 5799 5802 5804 5806 5809 5811 5813 5816 5818 5819 5822 5825 5828 5830 5832 5833 5834
5727 5728 5728 5729 5729 5730 5730 5730 5731 5731 5731 5731 5732 5732 5732 5732 5733 5734 5735 5736 5737 5738 5740 5742 5744 5746 5747 5749 5751 5753 5755 5758 5761 5763 5765 5767 5769 5773 5775 5777 5779 5782 5784 5787 5789 5793 5796 5799 5801 5803 5805 5808 5810 5813 5815 5818 5821 5824 5826 5828 5829 5830
5722 5723 5723 5723 5723 5723 5723 5724 5724 5725 5726 5726 5726 5726 5726 5726 5727 5728 5729 5730 5731 5732 5733 5735 5737 5739 5740 5742 5744 5746 5748 5751 5754 5757 5759 5760 5763 5766 5769 5771 5774 5776 5778 5781 5784 5787 5790 5793 5795 5797 5799 5802 5805 5809 5811 5813 5815 5818 5821 5823 5824 5825
5717 5718 5718 5718 5718 5717 5717 5718 5718 5719 5719 5720 5720 5720 5720 5720 5721 5722 5723 5724 5725 5726 5726 5727 5729 5732 5734 5735 5737 5739 5742 5744 5746 5749 5752 5754 5756 5759 5761 5764 5768 5770 5772 5775 5778 5781 5784 5786 5789 5791 5793 5796 5800 5803 5806 5808 5810 5812 5815 5818 5820 5821
5711 5712 5713 5713 5712 5712 5711 5712 5712 5712 5713 5713 5714 5714 5714 5714 5714 5715 5717 5718 5719 5720 5721 5721 5722 5724 5726 5728 5730 5732 5735 5737 5739 5742 5745 5747 5750 5752 5754 5756 5760 5763 5766 5769 5772 5774 5777 5780 5783 5785 5788 5791 5794 5797 5800 5803 5804 5807 5810 5813 5815 5817
5706 5706 5707 5707 5707 5706 5706 5705 5706 5706 5706 5707 5707 5707 5708 5708 5708 5708 5709 5711 5712 5714 5715 5715 5716 5717 5718 5720 5723 5725 5727 5730 5733 5735 5737 5740 5743 5746 5748 5749 5753 5756 5759 5762 5765 5768 5771 5774 5777 5779 5782 5785 5788 5791 5795 5797 5799 5802 5805 5808 5810 5812
5700 5700 5701 5701 5701 5700 5700 5699 5699 5700 5700 5700 5701 5701 5701 5701 5702 5702 5703 5704 5705 5706 5708 5709 5710 5711 5711 5713 5715 5717 5720 5722 5725 5727 5730 5732 5735 5738 5741 5743 5746 5749 5752 5755 5759 5762 5764 5766 5770 5773 5776 5779 5781 5785 5789 5791 5793 5796 5799 5803 5806 5807
5695 5695 5695 5695 5695 5694 5694 5693 5693 5694 5694 5694 5694 5695 5695 5695 5696 5696 5696 5697 5698 5699 5701 5702 5704 5705 5705 5706 5707 5709 5712 5714 5716 5719 5722 5725 5727 5730 5733 5735 5738 5741 5745 5748 5752 5755 5758 5760 5762 5766 5770 5773 5776 5781 5783 5784 5787 5789 5793 5797 5800 5802
5690 5690 5689 5689 5689 5688 5688 5687 5687 5687 5688 5688 5688 5688 5689 5689 5690 5690 5690 5691 5692 5692 5693 5695 5697 5698 5699 5699 5700 5702 5704 5706 5708 5711 5714 5717 5720 5722 5725 5727 5730 5733 5736 5741 5745 5748 5752 5755 5757 5759 5763 5767 5771 5775 5778 5779 5780 5782 5786 5790 5794 5797